When you browse on this site, cookies collect data to enhance your experience and personalize the content and advertising you see.
Visit our Privacy Policy to learn more. By continuing to use the site, you agree to this use of cookies and data.
  • In Switzerland
  • List of Countries
  • For 7 days
  • Water Temperature
  • Satellite Maps
  • Weather Map
  • Weather Widgets
  • user-avatar
    Login

    Hourly Weather Enilchek

    Today, 17 June, Monday

    Time Temperature Precipitation Wind Pressure Humidity
    00:00 +5°C° 0 mm 1 mps 513 mmHg 71%
    01:00 +5°C° 0 mm 1 mps 512 mmHg 71%
    02:00 +5°C° 0 mm 1 mps 512 mmHg 70%
    03:00 +5°C° 0 mm 1 mps 512 mmHg 69%
    04:00 +5°C° 0 mm 1 mps 512 mmHg 67%
    05:00 +4°C° 0 mm 1 mps 512 mmHg 65%
    06:00 +5°C° 0 mm 1 mps 513 mmHg 62%
    07:00 +6°C° 0 mm 1 mps 513 mmHg 59%
    08:00 +8°C° 0 mm 1 mps 514 mmHg 56%
    09:00 +9°C° 0 mm 1 mps 514 mmHg 52%
    10:00 +9°C° 0 mm 2 mps 515 mmHg 48%
    11:00 +10°C° 0 mm 2 mps 515 mmHg 46%
    12:00 +10°C° 0 mm 2 mps 515 mmHg 42%
    13:00 +12°C° 0 mm 2 mps 515 mmHg 39%
    14:00 +12°C° 0 mm 1 mps 515 mmHg 36%
    15:00 +12°C° 0.1 mm 2 mps 515 mmHg 38%
    16:00 +12°C° 0.1 mm 2 mps 515 mmHg 40%
    17:00 +12°C° 0.1 mm 2 mps 515 mmHg 42%
    18:00 +10°C° 0.2 mm 2 mps 514 mmHg 49%
    19:00 +8°C° 0.2 mm 2 mps 514 mmHg 56%
    20:00 +7°C° 0.2 mm 2 mps 514 mmHg 62%
    21:00 +7°C° 0.2 mm 2 mps 513 mmHg 64%
    22:00 +7°C° 0.2 mm 1 mps 513 mmHg 65%
    23:00 +7°C° 0.2 mm 1 mps 513 mmHg 66%

    Tomorrow, 18 June, Tuesday

    Time Temperature Precipitation Wind Pressure Humidity
    00:00 +6°C° 0.1 mm 1 mps 513 mmHg 66%
    01:00 +6°C° 0.1 mm 1 mps 512 mmHg 66%
    02:00 +5°C° 0.1 mm 0 mps 512 mmHg 67%
    03:00 +6°C° 0 mm 1 mps 512 mmHg 66%
    04:00 +6°C° 0 mm 1 mps 512 mmHg 65%
    05:00 +6°C° 0 mm 1 mps 512 mmHg 65%
    06:00 +7°C° 0.1 mm 1 mps 513 mmHg 61%
    07:00 +8°C° 0.1 mm 1 mps 513 mmHg 58%
    08:00 +10°C° 0.1 mm 1 mps 514 mmHg 55%
    09:00 +9°C° 0.3 mm 2 mps 514 mmHg 51%
    10:00 +10°C° 0.3 mm 2 mps 515 mmHg 48%
    11:00 +11°C° 0.3 mm 3 mps 515 mmHg 44%
    12:00 +12°C° 0.4 mm 2 mps 515 mmHg 47%
    13:00 +10°C° 0.4 mm 2 mps 514 mmHg 50%
    14:00 +10°C° 0.4 mm 2 mps 514 mmHg 52%
    15:00 +9°C° 1.5 mm 2 mps 513 mmHg 63%
    16:00 +8°C° 1.5 mm 1 mps 512 mmHg 73%
    17:00 +7°C° 1.5 mm 1 mps 512 mmHg 83%
    18:00 +7°C° 1 mm 1 mps 512 mmHg 85%
    19:00 +5°C° 1 mm 2 mps 512 mmHg 87%
    20:00 +5°C° 1 mm 2 mps 512 mmHg 90%
    21:00 +5°C° 0.1 mm 2 mps 512 mmHg 87%
    22:00 +6°C° 0.1 mm 1 mps 512 mmHg 85%
    23:00 +6°C° 0.1 mm 1 mps 513 mmHg 83%

    Day after tomorrow, 19 June, Wednesday

    Time Temperature Precipitation Wind Pressure Humidity
    00:00 +6°C° 0 mm 1 mps 512 mmHg 82%
    01:00 +5°C° 0 mm 1 mps 512 mmHg 81%
    02:00 +5°C° 0 mm 1 mps 512 mmHg 80%
    03:00 +5°C° 0 mm 1 mps 512 mmHg 78%
    04:00 +6°C° 0 mm 1 mps 512 mmHg 77%
    05:00 +6°C° 0 mm 1 mps 512 mmHg 75%
    06:00 +6°C° 0 mm 0 mps 513 mmHg 72%
    07:00 +6°C° 0 mm 0 mps 513 mmHg 70%
    08:00 +7°C° 0 mm 0 mps 514 mmHg 67%
    09:00 +9°C° 0.1 mm 1 mps 514 mmHg 61%
    10:00 +10°C° 0.1 mm 1 mps 515 mmHg 55%
    11:00 +10°C° 0.1 mm 2 mps 515 mmHg 50%
    12:00 +9°C° 0.7 mm 2 mps 514 mmHg 57%
    13:00 +8°C° 0.7 mm 2 mps 513 mmHg 65%
    14:00 +8°C° 0.7 mm 1 mps 512 mmHg 73%
    15:00 +9°C° 0.4 mm 1 mps 513 mmHg 71%
    16:00 +9°C° 0.4 mm 1 mps 513 mmHg 69%
    17:00 +10°C° 0.4 mm 1 mps 513 mmHg 67%
    18:00 +9°C° 0.3 mm 1 mps 513 mmHg 69%
    19:00 +9°C° 0.3 mm 1 mps 513 mmHg 71%
    20:00 +8°C° 0.3 mm 1 mps 513 mmHg 73%
    21:00 +8°C° 0.3 mm 1 mps 513 mmHg 74%
    22:00 +8°C° 0.3 mm 1 mps 513 mmHg 76%
    23:00 +7°C° 0.3 mm 1 mps 513 mmHg 78%

    20 June, Thursday

    Time Temperature Precipitation Wind Pressure Humidity
    00:00 +7°C° 0.1 mm 1 mps 513 mmHg 79%
    01:00 +6°C° 0.1 mm 2 mps 513 mmHg 80%
    02:00 +6°C° 0.1 mm 2 mps 512 mmHg 80%
    03:00 +6°C° 0 mm 2 mps 513 mmHg 80%
    04:00 +7°C° 0 mm 1 mps 513 mmHg 79%
    05:00 +7°C° 0 mm 1 mps 513 mmHg 78%
    06:00 +7°C° 0.1 mm 1 mps 513 mmHg 78%
    07:00 +7°C° 0.1 mm 1 mps 514 mmHg 78%
    08:00 +8°C° 0.1 mm 1 mps 514 mmHg 78%
    09:00 +7°C° 0.4 mm 2 mps 514 mmHg 76%
    10:00 +8°C° 0.4 mm 2 mps 514 mmHg 73%
    11:00 +8°C° 0.4 mm 2 mps 515 mmHg 71%
    12:00 +9°C° 0.5 mm 2 mps 515 mmHg 68%
    13:00 +10°C° 0.5 mm 2 mps 515 mmHg 65%
    14:00 +11°C° 0.5 mm 1 mps 515 mmHg 62%
    15:00 +10°C° 1 mm 2 mps 515 mmHg 62%
    16:00 +10°C° 1 mm 2 mps 515 mmHg 62%
    17:00 +10°C° 1 mm 2 mps 515 mmHg 62%
    18:00 +10°C° 0.8 mm 2 mps 515 mmHg 64%
    19:00 +9°C° 0.8 mm 2 mps 515 mmHg 67%
    20:00 +8°C° 0.8 mm 2 mps 515 mmHg 69%
    21:00 +9°C° 0 mm 1 mps 514 mmHg 72%
    22:00 +8°C° 0 mm 1 mps 514 mmHg 75%
    23:00 +8°C° 0 mm 1 mps 514 mmHg 78%

    21 June, Friday

    Time Temperature Precipitation Wind Pressure Humidity
    00:00 +7°C° 0 mm 1 mps 514 mmHg 78%
    01:00 +7°C° 0 mm 1 mps 513 mmHg 79%
    02:00 +7°C° 0 mm 1 mps 513 mmHg 80%
    03:00 +7°C° 0 mm 1 mps 513 mmHg 79%
    04:00 +6°C° 0 mm 0 mps 513 mmHg 77%
    05:00 +6°C° 0 mm 0 mps 513 mmHg 75%
    06:00 +7°C° 0 mm 0 mps 514 mmHg 69%
    07:00 +9°C° 0 mm 1 mps 515 mmHg 62%
    08:00 +10°C° 0 mm 1 mps 516 mmHg 55%
    09:00 +11°C° 0.2 mm 1 mps 516 mmHg 51%
    10:00 +12°C° 0.2 mm 2 mps 517 mmHg 48%
    11:00 +13°C° 0.2 mm 2 mps 517 mmHg 44%
    12:00 +13°C° 0.4 mm 2 mps 517 mmHg 46%
    13:00 +13°C° 0.4 mm 2 mps 517 mmHg 49%
    14:00 +13°C° 0.4 mm 2 mps 516 mmHg 51%
    15:00 +13°C° 0.8 mm 2 mps 516 mmHg 54%
    16:00 +12°C° 0.8 mm 1 mps 516 mmHg 57%
    17:00 +11°C° 0.8 mm 1 mps 515 mmHg 60%
    18:00 +11°C° 0.3 mm 1 mps 515 mmHg 62%
    19:00 +11°C° 0.3 mm 1 mps 515 mmHg 64%
    20:00 +9°C° 0.3 mm 2 mps 515 mmHg 67%
    21:00 +10°C° 0.1 mm 1 mps 515 mmHg 70%
    22:00 +9°C° 0.1 mm 1 mps 515 mmHg 73%
    23:00 +8°C° 0.1 mm 1 mps 514 mmHg 76%

    22 June, Saturday

    Time Temperature Precipitation Wind Pressure Humidity
    00:00 +8°C° 0 mm 1 mps 514 mmHg 75%
    01:00 +8°C° 0 mm 1 mps 513 mmHg 75%
    02:00 +7°C° 0 mm 1 mps 513 mmHg 75%
    03:00 +7°C° 0 mm 1 mps 513 mmHg 74%
    04:00 +7°C° 0 mm 1 mps 513 mmHg 72%
    05:00 +7°C° 0 mm 1 mps 513 mmHg 71%
    06:00 +9°C° 0 mm 1 mps 514 mmHg 63%
    07:00 +10°C° 0 mm 1 mps 515 mmHg 55%
    08:00 +11°C° 0 mm 1 mps 516 mmHg 47%
    09:00 +12°C° 0 mm 1 mps 516 mmHg 43%
    10:00 +13°C° 0 mm 1 mps 517 mmHg 40%
    11:00 +14°C° 0 mm 1 mps 517 mmHg 36%
    12:00 +14°C° 0.3 mm 2 mps 517 mmHg 37%
    13:00 +14°C° 0.3 mm 2 mps 517 mmHg 38%
    14:00 +15°C° 0.3 mm 2 mps 517 mmHg 39%
    15:00 +14°C° 0.8 mm 2 mps 517 mmHg 44%
    16:00 +12°C° 0.8 mm 3 mps 516 mmHg 49%
    17:00 +12°C° 0.8 mm 3 mps 516 mmHg 54%
    18:00 +11°C° 0.5 mm 3 mps 516 mmHg 59%
    19:00 +10°C° 0.5 mm 2 mps 516 mmHg 65%
    20:00 +9°C° 0.5 mm 2 mps 515 mmHg 71%
    21:00 +8°C° 0.4 mm 2 mps 515 mmHg 72%
    22:00 +8°C° 0.4 mm 2 mps 515 mmHg 74%
    23:00 +8°C° 0.4 mm 2 mps 515 mmHg 76%
    Show more